Date String (YYYY-MM-DD hh:mm:ss) UTC,Instrument flags,absolute air pressure of the measurement (hPa),sample flow rate (lpm),inlet stack bypass flow (lpm),air temperature of the measurement (°C),ambient temperature measured by the external sensor (°C),aerosol sample conditioner tube jacket temperature (°C),OPC LED temperature (°C),internal box temperature (°C),relative humidity of the measurement (%),span deviation,mass concentration of particles derived from Lorenz-Mie calculation of OPC scattering (μg/m³),mass concentration of particles derived from Lorenz-Mie calculation of OPC scattering (μg/m³),mass concentration of particles derived from Lorenz-Mie calculation of OPC scattering (μg/m³)
DateTimeUTC,F1_M11,P_M11,Q1_M11,Q2_M11,T1_M11,T2_M11,T3_M11,T4_M11,T5_M11,U1_M11,ZSPAN_M11,X2_M11,X0_M11,X1_M11
2024-01-26 17:00:00,SystemResetWarning,0833.8,5.00,000.00,020.5,019.4,000.0,028.8,021.8,20.5,0000.0,0004.52,0006.19,0004.41
2024-01-26 17:01:00,SystemResetWarning,0833.8,5.00,000.00,020.5,019.4,000.0,028.8,021.9,20.3,0000.0,0004.51,0006.14,0004.40
2024-01-26 17:02:00,SystemResetWarning,0833.8,5.01,000.00,020.5,019.4,000.0,028.8,021.9,20.2,0000.0,0004.52,0006.11,0004.40
2024-01-26 17:03:00,SystemResetWarning,0833.9,5.01,000.00,020.5,019.4,000.0,028.8,021.8,20.2,0000.0,0004.52,0006.11,0004.41
2024-01-26 17:04:00,SystemResetWarning,0833.9,5.01,000.00,020.5,019.4,000.0,028.8,021.8,20.2,0000.0,0004.51,0006.05,0004.42
2024-01-26 17:05:00,SystemResetWarning,0833.9,5.00,000.00,020.5,019.4,000.0,028.8,021.8,20.0,0000.0,0004.51,0006.01,0004.42
2024-01-26 17:06:00,SystemResetWarning,0833.9,4.99,000.00,020.5,019.4,000.0,028.8,021.8,20.0,0000.0,0004.55,0006.21,0004.45
2024-01-26 17:07:00,SystemResetWarning,0833.9,5.00,000.00,020.5,019.5,000.0,028.8,021.8,20.0,0000.0,0004.57,0006.36,0004.48
2024-01-26 17:08:00,SystemResetWarning,0833.9,5.00,000.00,020.5,019.5,000.0,028.8,021.8,20.2,0000.0,0004.60,0006.55,0004.49
2024-01-26 17:09:00,SystemResetWarning,0833.9,5.01,000.00,020.5,019.5,000.0,028.8,021.9,20.4,0000.0,0004.62,0007.16,0004.50
2024-01-26 17:10:00,SystemResetWarning,0834.0,5.01,000.00,020.5,019.5,000.0,028.8,021.9,20.6,0000.0,0004.65,0007.39,0004.52
2024-01-26 17:11:00,SystemResetWarning,0834.0,5.00,000.00,020.5,019.5,000.0,028.8,021.9,20.7,0000.0,0004.66,0007.42,0004.52
2024-01-26 17:12:00,SystemResetWarning,0834.0,4.99,000.00,020.5,019.5,000.0,028.8,021.9,20.8,0000.0,0004.67,0007.43,0004.52
2024-01-26 17:13:00,SystemResetWarning,0834.0,4.99,000.00,020.5,019.5,000.0,028.8,021.9,20.8,0000.0,0004.68,0007.47,0004.51
2024-01-26 17:14:00,SystemResetWarning,0834.0,5.00,000.00,020.5,019.5,000.0,028.8,021.9,20.6,0000.0,0004.67,0007.46,0004.50
2024-01-26 17:15:00,SystemResetWarning,0834.0,5.00,000.00,020.5,019.5,000.0,028.8,021.9,20.4,0000.0,0004.66,0007.46,0004.49
2024-01-26 17:16:00,SystemResetWarning,0834.0,5.01,000.00,020.5,019.5,000.0,028.8,021.9,20.4,0000.0,0004.66,0007.48,0004.47
2024-01-26 17:17:00,SystemResetWarning,0834.0,5.01,000.00,020.5,019.5,000.0,028.8,021.9,20.6,0000.0,0004.65,0007.58,0004.45
2024-01-26 17:18:00,SystemResetWarning,0834.0,5.00,000.00,020.5,019.5,000.0,028.8,021.9,20.4,0000.0,0004.64,0007.82,0004.43
2024-01-26 17:19:00,SystemResetWarning,0834.0,4.99,000.00,020.5,019.6,000.0,028.8,021.9,20.3,0000.0,0004.63,0007.77,0004.42
2024-01-26 17:20:00,SystemResetWarning,0834.0,4.99,000.00,020.5,019.6,000.0,028.8,021.9,20.3,0000.0,0004.65,0007.72,0004.42
2024-01-26 17:21:00,SystemResetWarning,0834.0,5.00,000.00,020.5,019.6,000.0,028.8,021.9,20.3,0000.0,0004.65,0007.57,0004.41
2024-01-26 17:22:00,SystemResetWarning,0834.0,5.00,000.00,020.5,019.6,000.0,028.8,021.9,20.3,0000.0,0004.63,0007.53,0004.41
2024-01-26 17:23:00,SystemResetWarning,0834.0,5.01,000.00,020.5,019.6,000.0,028.8,021.9,20.1,0000.0,0004.61,0007.49,0004.39
2024-01-26 17:24:00,SystemResetWarning,0834.0,5.00,000.00,020.5,019.6,000.0,028.8,021.9,20.3,0000.0,0004.58,0007.44,0004.38
2024-01-26 17:25:00,SystemResetWarning,0834.0,4.99,000.00,020.5,019.6,000.0,028.8,021.9,20.3,0000.0,0004.57,0007.42,0004.37
2024-01-26 17:26:00,SystemResetWarning,0834.1,4.99,000.00,020.5,019.6,000.0,028.8,021.9,20.2,0000.0,0004.58,0007.59,0004.37
2024-01-26 17:27:00,SystemResetWarning,0834.1,5.00,000.00,020.6,019.6,000.0,028.8,021.9,20.2,0000.0,0004.57,0007.67,0004.37
2024-01-26 17:28:00,SystemResetWarning,0834.1,5.00,000.00,020.6,019.6,000.0,028.8,021.9,20.3,0000.0,0004.57,0007.59,0004.38
2024-01-26 17:29:00,SystemResetWarning,0834.1,5.01,000.00,020.6,019.6,000.0,028.8,021.9,20.3,0000.0,0004.56,0007.29,0004.37
2024-01-26 17:30:00,SystemResetWarning,0834.1,5.01,000.00,020.6,019.6,000.0,028.8,021.9,20.2,0000.0,0004.54,0007.17,0004.37
2024-01-26 17:31:00,SystemResetWarning,0834.1,5.00,000.00,020.6,019.6,000.0,028.8,021.9,20.0,0000.0,0004.50,0006.79,0004.36
2024-01-26 17:32:00,SystemResetWarning,0834.1,4.99,000.00,020.6,019.6,000.0,028.8,021.9,20.0,0000.0,0004.48,0006.63,0004.35
2024-01-26 17:33:00,SystemResetWarning,0834.1,4.99,000.00,020.6,019.6,000.0,028.8,021.9,19.9,0000.0,0004.47,0006.58,0004.35
2024-01-26 17:34:00,SystemResetWarning,0834.1,4.99,000.00,020.6,019.6,000.0,028.8,021.9,19.7,0000.0,0004.50,0006.65,0004.36
2024-01-26 17:35:00,SystemResetWarning,0834.1,5.00,000.00,020.6,019.6,000.0,028.8,021.9,19.9,0000.0,0004.52,0006.84,0004.37
2024-01-26 17:36:00,SystemResetWarning,0834.1,5.01,000.00,020.6,019.6,000.0,028.8,022.0,20.2,0000.0,0004.53,0006.87,0004.37
2024-01-26 17:37:00,SystemResetWarning,0834.1,5.01,000.00,020.6,019.6,000.0,028.8,022.0,20.1,0000.0,0004.51,0006.53,0004.37
2024-01-26 17:38:00,SystemResetWarning,0834.1,5.00,000.00,020.6,019.7,000.0,028.9,022.0,20.2,0000.3,0004.51,0006.35,0004.36
2024-01-26 17:39:00,SystemResetWarning,0834.2,4.99,000.00,020.6,019.7,000.0,028.9,022.0,20.2,0000.0,0004.48,0006.67,0004.34
2024-01-26 17:40:00,SystemResetWarning,0834.2,5.00,000.00,020.6,019.7,000.0,028.9,022.0,19.8,0000.0,0004.47,0007.30,0004.35
2024-01-26 17:41:00,SystemResetWarning,0834.2,5.00,000.00,020.6,019.7,000.0,028.9,022.0,19.7,-000.5,0004.50,0007.60,0004.35
2024-01-26 17:42:00,SystemResetWarning,0834.2,5.00,000.00,020.6,019.7,000.0,028.9,022.0,19.9,-001.0,0004.50,0007.63,0004.35
2024-01-26 17:43:00,SystemResetWarning,0834.2,5.00,000.00,020.6,019.7,000.0,028.9,022.0,20.3,-000.3,0004.50,0007.63,0004.35
2024-01-26 17:44:00,SystemResetWarning,0834.2,5.00,000.00,020.6,019.7,000.0,028.9,022.0,20.4,-000.0,0004.50,0007.64,0004.34
2024-01-26 17:45:00,SystemResetWarning,0834.2,5.00,000.00,020.6,019.7,000.0,028.9,022.0,20.4,-000.3,0004.47,0007.65,0004.31
2024-01-26 17:46:00,SystemResetWarning,0834.1,5.00,000.00,020.6,019.7,000.0,028.9,022.0,20.3,-000.1,0004.44,0007.56,0004.30
2024-01-26 17:47:00,SystemResetWarning,0834.1,5.00,000.00,020.6,019.7,000.0,028.9,022.0,20.0,0000.0,0004.42,0007.53,0004.29
2024-01-26 17:48:00,SystemResetWarning,0834.1,5.00,000.00,020.6,019.7,000.0,028.9,022.0,20.0,0000.0,0004.42,0007.54,0004.29
2024-01-26 17:49:00,SystemResetWarning,0834.1,5.00,000.00,020.6,019.7,000.0,028.9,022.0,20.2,0000.0,0004.42,0007.56,0004.29
2024-01-26 17:50:00,SystemResetWarning,0834.1,5.00,000.00,020.6,019.7,000.0,028.9,022.0,20.3,0000.0,0004.44,0007.43,0004.30
2024-01-26 17:51:00,SystemResetWarning,0834.1,5.00,000.00,020.6,019.7,000.0,028.9,022.0,20.5,0000.0,0004.48,0007.01,0004.31
2024-01-26 17:52:00,SystemResetWarning,0834.1,5.00,000.00,020.6,019.8,000.0,028.9,022.0,20.8,0000.0,0004.46,0006.93,0004.31
2024-01-26 17:53:00,SystemResetWarning,0834.1,5.00,000.00,020.6,019.8,000.0,028.9,022.0,20.8,0000.0,0004.47,0006.92,0004.33
2024-01-26 17:54:00,SystemResetWarning,0834.1,5.00,000.00,020.6,019.8,000.0,028.9,022.0,20.8,0000.8,0004.48,0006.94,0004.33
2024-01-26 17:55:00,SystemResetWarning,0834.1,5.00,000.00,020.6,019.8,000.0,028.9,022.0,21.1,0001.2,0004.50,0007.04,0004.32
2024-01-26 17:56:00,SystemResetWarning,0834.1,5.00,000.00,020.7,019.8,000.0,028.9,022.0,21.1,0001.6,0004.50,0007.17,0004.32
2024-01-26 17:57:00,SystemResetWarning,0834.1,5.00,000.00,020.7,019.8,000.0,028.9,022.0,21.1,0001.9,0004.50,0007.15,0004.33
2024-01-26 17:58:00,SystemResetWarning,0834.2,5.00,000.00,020.7,019.8,000.0,028.9,022.0,21.0,0002.0,0004.51,0007.16,0004.33
2024-01-26 17:59:00,SystemResetWarning,0834.1,4.99,000.00,020.7,019.8,000.0,028.9,022.0,20.8,0002.3,0004.51,0007.17,0004.35
